CAPE
0 0 0 0 0 0 0 0 0 0 0 0 0 0 0 0 0 0 0 0 0 2 45 0 0 0 0 0 0 0 0 0 0 0 0 0 0 0 0 0 0 0 0 0 0 0 0 0 0
0 0 0 0 0 0 0 0 0 0 0 0 0 0 0 0 0 0 0 0 0 19 0 12 0 0 0 0 0 0 0 0 0 0 0 0 0 0 0 0 0 0 0 0 0 0 0 0 0
0 0 0 0 0 0 0 0 0 0 0 0 0 0 0 0 0 0 0 0 0 35 16 26 0 0 0 0 0 0 0 0 0 0 0 0 0 0 0 0 0 0 0 0 0 0 0 0 0
0 0 0 0 0 0 0 0 0 0 0 0 0 0 0 0 0 0 0 0 4 24 22 6 0 0 0 0 0 0 0 0 0 0 0 0 0 0 0 0 0 0 0 0 0 0 0 0 0
0 0 0 0 0 0 0 0 0 0 0 0 0 0 0 0 0 4 5 8 29 92 222 78 16 0 0 0 0 0 0 0 0 0 0 0 0 0 0 0 0 0 14 27 38 62 154 212 233
0 0 0 0 0 0 0 0 0 0 0 0 0 0 0 0 1 8 33 29 136 120 195 138 186 16 0 0 0 0 0 0 0 0 0 0 0 0 0 0 0 15 48 121 213 254 295 339 383
0 0 0 0 0 0 0 0 0 0 0 0 0 0 0 0 0 84 97 141 154 234 179 109 212 91 30 0 0 0 0 0 0 0 0 0 0 0 0 0 3 44 122 207 255 338 542 761 627
0 0 0 0 0 0 0 0 0 0 0 0 0 0 0 0 3 85 116 124 122 166 186 130 121 245 124 77 28 0 0 0 0 0 0 0 0 0 0 12 33 86 174 289 383 533 645 511 348
0 0 0 0 0 0 0 0 0 0 0 0 0 0 0 0 4 51 100 132 100 33 67 60 26 125 91 61 135 52 35 0 7 2 12 20 35 49 55 44 57 139 323 438 529 680 743 473 299
0 0 0 0 0 0 0 0 0 0 0 0 0 0 0 0 0 0 0 0 5 27 65 60 54 39 109 32 99 188 169 90 97 65 108 101 165 170 102 142 103 207 433 615 795 850 676 388 314
0 0 0 0 0 0 0 0 0 0 0 0 0 0 0 0 0 0 0 0 0 0 1 65 133 153 150 113 112 123 208 160 219 180 248 259 288 228 223 205 271 280 408 680 833 841 734 532 429
0 0 0 0 0 0 0 0 0 0 0 0 0 0 0 0 0 0 0 0 0 0 0 11 64 137 166 137 89 84 91 138 112 182 319 249 265 238 276 231 240 420 306 643 977 914 918 775 558
0 0 0 0 0 0 0 0 0 0 0 0 0 0 0 0 0 0 0 0 0 0 0 0 1 8 80 129 124 106 92 96 110 118 281 246 177 146 253 280 191 211 258 457 895 945 921 749 555
0 0 0 0 0 0 0 0 0 0 0 0 0 0 0 0 0 0 0 0 0 0 0 0 0 3 21 20 90 99 104 122 137 119 213 266 167 202 219 242 129 27 1 227 674 933 909 761 528
0 0 0 0 0 0 0 0 0 0 0 0 0 0 0 0 0 0 0 0 0 0 0 0 0 0 0 0 12 103 117 104 139 138 222 301 212 265 269 183 105 65 6 14 547 721 804 702 608
0 0 0 0 0 0 0 0 0 0 0 0 0 0 0 0 0 0 0 0 0 0 0 0 0 0 0 0 12 71 149 129 151 202 192 331 357 336 311 78 78 90 42 68 316 605 578 654 720
0 0 0 0 0 0 0 0 0 0 0 0 0 0 0 0 0 0 0 0 0 0 0 0 0 0 0 0 9 137 184 133 177 224 223 400 433 373 284 90 60 60 44 111 434 596 542 648 725
0 0 0 0 0 0 0 0 0 0 0 0 0 0 0 0 0 0 0 0 0 0 0 0 0 0 0 0 42 228 312 166 208 284 336 481 557 409 320 257 160 128 180 141 460 627 704 634 870
0 0 0 0 0 0 0 0 0 0 0 0 0 0 0 0 0 0 0 0 0 0 0 0 0 0 0 0 25 108 212 388 354 383 520 601 561 440 551 422 303 262 160 217 739 662 642 742 453
0 0 0 0 0 0 0 0 0 0 0 0 0 0 0 0 0 0 0 0 0 0 0 0 0 0 0 0 19 188 380 569 624 549 579 654 667 749 654 548 404 335 200 703 628 545 503 544 189
0 0 0 0 0 0 0 0 0 0 0 0 0 0 0 0 0 0 0 0 0 0 0 0 0 0 0 0 167 285 466 362 508 633 740 838 814 809 730 571 318 149 515 587 540 644 746 611 54
0 0 0 0 0 0 0 0 0 0 0 0 0 0 0 0 0 0 0 0 0 0 0 0 0 0 0 27 118 214 419 354 535 610 855 853 893 761 644 435 284 465 820 514 736 772 780 438 198
0 0 0 0 0 0 0 0 0 0 0 0 0 0 0 0 0 0 0 0 0 0 0 0 0 0 0 16 313 496 592 741 825 885 829 796 917 871 616 537 681 829 636 555 736 554 303 105 107
0 0 0 0 0 0 0 0 0 0 0 0 0 0 0 0 0 0 0 0 0 0 0 4 3 0 0 44 307 492 657 643 766 864 852 905 952 874 791 790 828 799 770 719 434 229 116 63 39
0 0 0 0 0 0 0 0 0 0 0 0 0 0 0 0 0 0 0 0 0 9 151 154 180 50 120 287 494 647 750 794 945 1002 1010 979 885 848 801 789 700 658 458 176 43 72 85 84 95
5 0 0 0 0 0 0 0 0 0 0 0 0 0 0 0 0 0 0 0 86 466 421 528 479 418 559 581 595 680 746 852 950 1032 814 619 662 659 568 568 481 189 3 0 35 118 174 205 164
16 2 0 0 0 0 0 0 0 0 0 0 0 0 0 0 0 0 0 342 716 740 911 912 869 768 667 593 531 595 636 824 874 669 575 499 460 448 378 235 63 0 0 1 77 207 211 265 195
22 9 1 0 0 0 0 0 0 0 0 0 0 0 0 0 0 0 164 873 984 1076 981 990 904 791 654 590 518 513 562 511 467 448 411 406 335 220 120 19 2 0 0 65 209 182 176 327 300
0 11 1 0 0 0 0 0 0 0 0 0 0 0 35 0 14 216 841 1021 1052 955 969 875 777 693 588 481 394 388 329 299 316 322 291 238 101 31 1 0 0 0 37 136 111 103 141 90 300
0 0 3 5 0 0 0 0 0 0 0 0 0 0 54 149 281 626 884 1013 1044 960 868 766 716 683 502 400 375 293 197 185 203 167 115 26 0 0 0 0 0 11 25 72 63 64 59 62 206
CIN
0 0 0 0 0 0 0 0 0 0 0 0 0 0 0 -6 0 0 0 0 0 -250 -617 -1 0 0 0 0 0 0 0 0 0 0 0 0 0 0 0 0 0 0 0 0 0 0 0 0 0
0 0 0 0 0 0 0 0 0 0 0 0 0 0 0 0 0 0 0 0 -47 -501 0 -644 0 0 0 0 0 0 0 0 0 0 0 0 0 0 0 0 0 0 0 0 0 0 0 0 0
0 0 0 0 0 0 0 0 0 0 0 0 0 0 0 0 0 0 0 0 0 -496 -592 -636 0 0 0 0 0 0 0 0 0 0 0 0 0 0 0 0 0 0 0 0 0 0 0 0 0
0 0 0 0 0 0 0 0 0 0 0 0 0 0 0 0 0 0 0 0 -361 -475 -558 -656 0 0 0 0 0 0 0 0 0 0 0 0 0 0 0 0 0 0 0 0 0 0 0 0 0
0 0 0 0 0 0 0 0 0 0 0 0 0 0 0 0 -7 -228 -245 -301 -276 -436 -540 -602 -543 0 0 0 0 0 0 0 0 0 0 0 0 0 0 0 0 0 -418 -336 -302 -256 -188 -152 -123
0 0 0 0 0 0 0 0 0 0 0 0 0 0 0 0 -116 -197 -222 -221 -271 -333 -465 -546 -618 -710 0 0 0 0 0 0 0 0 0 0 0 0 0 0 0 -455 -368 -282 -223 -193 -161 -138 -110
0 0 0 0 0 0 0 0 0 0 0 0 0 0 0 0 0 -219 -252 -284 -319 -392 -469 -562 -534 -608 -526 0 0 0 0 0 0 0 0 0 0 0 0 0 -215 -445 -351 -282 -252 -199 -123 -73 -82
0 0 0 0 0 0 0 0 0 0 0 0 0 0 0 0 -298 -287 -262 -297 -311 -371 -438 -516 -622 -543 -567 -585 -640 0 0 0 0 0 0 0 -14 -191 0 -561 -502 -429 -366 -299 -243 -179 -137 -159 -182
0 0 0 0 0 0 0 0 0 0 0 0 0 0 0 0 -220 -216 -214 -229 -244 -324 -385 -490 -568 -559 -561 -540 -561 -629 -661 0 -493 -214 -659 -633 -568 -532 -500 -501 -467 -422 -329 -274 -225 -152 -116 -169 -207
0 0 0 0 0 0 0 0 0 0 0 0 0 0 0 0 0 0 0 0 -79 -138 -266 -382 -466 -495 -557 -567 -594 -565 -570 -623 -608 -612 -568 -546 -489 -447 -455 -416 -448 -388 -282 -212 -142 -107 -121 -188 -172
0 0 0 0 0 0 0 0 0 0 0 0 0 0 0 0 0 0 0 0 0 0 -25 -293 -425 -518 -547 -565 -603 -594 -554 -583 -555 -569 -520 -455 -452 -459 -428 -387 -333 -335 -280 -159 -105 -78 -85 -97 -118
0 0 0 0 0 0 0 0 0 0 0 0 0 0 0 0 0 0 0 0 0 0 0 -192 -362 -397 -441 -510 -548 -588 -549 -605 -624 -603 -525 -499 -501 -488 -428 -407 -339 -261 -268 -142 -71 -52 -33 -43 -67
0 0 0 0 0 0 0 0 0 0 0 0 0 0 0 0 0 0 0 0 0 0 0 0 -213 -349 -383 -461 -489 -578 -608 -614 -618 -631 -595 -575 -600 -567 -489 -437 -409 -351 -290 -196 -90 -63 -47 -55 -62
0 0 0 0 0 0 0 0 0 0 0 0 0 0 0 0 0 0 0 0 0 0 0 0 0 -103 -378 -390 -469 -502 -631 -617 -654 -654 -653 -651 -619 -560 -502 -484 -473 -470 -368 -255 -136 -92 -81 -96 -84
0 0 0 0 0 0 0 0 0 0 0 0 0 0 0 0 0 0 0 0 0 0 0 0 0 0 0 0 -465 -528 -592 -695 -626 -686 -688 -659 -644 -570 -575 -499 -460 -439 -406 -326 -209 -119 -45 -26 -62
0 0 0 0 0 0 0 0 0 0 0 0 0 0 0 0 0 0 0 0 0 0 0 0 0 0 0 0 -463 -544 -609 -664 -644 -678 -704 -632 -575 -557 -561 -544 -491 -456 -411 -374 -241 -109 -57 -23 -9
0 0 0 0 0 0 0 0 0 0 0 0 0 0 0 0 0 0 0 0 0 0 0 0 0 0 0 0 -173 -596 -651 -715 -691 -683 -670 -606 -561 -548 -547 -543 -506 -452 -443 -327 -148 -65 -48 -17 -8
0 0 0 0 0 0 0 0 0 0 0 0 0 0 0 0 0 0 0 0 0 0 0 0 0 0 0 0 -620 -609 -641 -739 -706 -677 -648 -583 -540 -553 -512 -475 -493 -449 -352 -298 -159 -45 -33 -16 -1
0 0 0 0 0 0 0 0 0 0 0 0 0 0 0 0 0 0 0 0 0 0 0 0 0 0 0 0 -539 -540 -515 -634 -654 -649 -595 -534 -512 -508 -415 -407 -414 -372 -305 -219 -48 -33 -11 -9 -26
0 0 0 0 0 0 0 0 0 0 0 0 0 0 0 0 0 0 0 0 0 0 0 0 0 0 0 0 -512 -509 -534 -557 -537 -568 -565 -491 -444 -387 -386 -339 -309 -280 -242 -51 -47 -44 -31 -18 -38
0 0 0 0 0 0 0 0 0 0 0 0 0 0 0 0 0 0 0 0 0 0 0 0 0 0 0 0 -597 -620 -606 -639 -573 -510 -468 -424 -396 -349 -352 -316 -342 -317 -115 -50 -51 -20 -12 -2 -49
-2 0 0 0 0 0 0 0 0 0 0 0 0 0 0 0 0 0 0 0 0 0 0 0 0 0 0 -629 -525 -458 -346 -410 -540 -479 -399 -387 -328 -333 -337 -316 -294 -170 -42 -59 -20 -18 -5 -3 -0
0 0 0 0 0 0 0 0 0 0 0 0 0 0 0 0 0 0 0 0 0 0 0 0 0 0 0 -665 -539 -474 -405 -411 -397 -361 -367 -349 -279 -254 -267 -231 -109 -35 -54 -46 -23 -21 -13 -10 -3
0 0 0 0 0 0 0 0 0 0 0 0 0 0 0 0 0 0 0 0 0 0 0 -226 -150 0 0 -714 -579 -453 -407 -392 -354 -337 -312 -273 -224 -183 -141 -90 -41 -39 -32 -26 -25 -21 -16 -21 -15
0 0 0 0 0 0 0 0 0 0 0 0 0 0 0 0 0 0 0 0 0 -331 -540 -642 -616 -653 -662 -584 -498 -430 -377 -348 -299 -277 -237 -200 -170 -131 -106 -55 -47 -39 -40 -51 -54 -27 -19 -22 -11
-3 0 0 0 0 0 0 0 0 0 0 0 0 0 0 0 0 0 0 0 -482 -441 -503 -473 -476 -486 -471 -446 -429 -403 -362 -311 -262 -208 -215 -216 -159 -126 -108 -72 -48 -68 -12 0 -41 -24 -14 -12 -14
-4 -12 0 0 0 0 0 0 0 0 0 0 0 0 0 0 0 0 0 -425 -376 -391 -373 -366 -355 -368 -379 -398 -392 -363 -331 -268 -214 -232 -203 -172 -163 -129 -100 -89 -110 0 0 -2 -33 -11 -16 -13 -8
-25 -5 -2 0 0 0 0 0 0 0 0 0 0 0 0 0 0 0 -507 -317 -315 -286 -305 -288 -289 -309 -337 -347 -335 -316 -285 -264 -240 -195 -156 -130 -138 -133 -129 -170 -42 0 0 -28 -18 -19 -17 -3 -1
0 -11 -9 -2 0 0 0 0 0 0 0 0 0 0 -260 0 -418 -483 -315 -288 -261 -276 -259 -271 -281 -291 -311 -308 -309 -280 -262 -235 -190 -148 -135 -136 -187 -199 -68 0 0 0 -23 -23 -19 -15 -12 -21 -4
0 -0 -5 -3 0 0 0 0 0 0 0 0 0 0 -223 -415 -399 -314 -286 -273 -236 -230 -243 -252 -253 -239 -259 -257 -234 -208 -204 -185 -153 -159 -186 -230 0 -8 0 0 0 -20 -19 -24 -27 -21 -21 -29 -17
Wind_Speed
17 15 15 14 12 14 18 15 11 10 9 8 8 8 7 6 5 13 11 14 12 15 16 18 18 17 18 19 19 19 19 17 17 17 17 17 18 18 18 19 19 19 20 20 19 18 18 16 15
14 14 15 14 15 17 17 13 11 7 10 15 8 9 6 9 7 12 10 14 12 14 14 15 16 17 16 17 18 18 17 16 15 14 14 15 15 16 17 17 18 18 19 19 19 19 19 18 17
14 18 15 14 16 15 15 10 10 13 17 11 11 10 10 12 6 9 11 13 13 12 11 12 14 15 14 14 15 15 15 14 14 14 13 13 13 14 15 15 16 16 17 18 18 18 19 19 18
17 18 17 20 20 20 15 10 10 17 13 9 10 13 12 11 7 9 11 12 11 11 11 10 12 14 13 14 12 12 11 12 12 11 11 11 11 11 12 13 14 14 15 16 16 17 17 18 18
18 21 24 25 27 21 20 18 20 21 17 13 12 13 12 9 8 8 9 9 9 8 8 7 12 12 11 11 10 9 7 8 9 9 9 9 9 9 10 10 11 12 13 14 14 15 16 17 16
21 21 26 30 29 25 24 22 20 17 13 13 11 9 9 8 7 6 7 6 7 8 5 5 6 9 10 11 8 6 6 6 6 7 6 7 7 7 7 8 9 10 11 11 12 14 15 16 16
25 25 30 29 28 25 28 24 18 16 12 8 11 10 12 11 8 6 5 6 6 6 4 2 3 5 5 1 2 3 5 4 5 4 5 5 5 4 4 5 6 7 8 9 11 12 14 16 17
26 26 30 30 31 30 19 20 21 14 13 12 12 11 10 14 7 7 8 8 8 7 5 2 1 2 2 2 3 4 4 5 5 4 4 5 3 2 2 3 3 4 6 7 9 11 13 15 17
23 32 36 33 28 26 22 22 20 19 18 17 15 13 11 10 9 9 11 12 12 10 6 5 5 3 4 4 5 6 6 6 6 7 6 5 3 2 2 2 2 3 4 6 7 10 12 14 16
31 36 36 32 30 27 28 28 24 24 23 22 21 15 16 13 15 17 15 13 12 11 8 8 8 7 6 7 7 8 7 8 8 8 7 7 5 4 4 5 3 3 5 6 7 9 11 12 14
35 42 39 39 33 30 36 37 29 28 30 25 26 29 26 22 25 27 24 20 22 17 12 10 11 10 10 10 11 10 10 11 10 10 9 8 7 7 6 7 6 6 6 9 8 9 10 11 12
42 41 43 42 34 33 37 38 41 37 37 33 35 36 37 36 32 32 30 26 29 22 15 16 12 11 12 14 13 14 13 13 13 12 11 11 10 9 8 6 6 8 12 11 11 11 11 11 11
48 46 40 46 41 39 35 49 48 49 42 43 44 43 44 45 39 34 29 28 25 24 20 21 15 15 17 16 16 17 17 15 15 14 13 13 13 12 11 9 9 9 11 12 12 12 12 11 12
42 47 50 43 43 45 45 54 49 52 43 45 45 47 46 44 42 38 32 33 29 26 25 25 22 21 20 20 20 19 18 17 15 15 15 15 15 15 11 9 10 9 11 12 13 13 12 12 13
43 50 43 44 49 47 40 56 70 51 50 56 52 52 52 48 44 41 37 32 28 27 27 28 30 26 24 22 20 19 17 15 14 15 15 14 16 15 14 11 11 10 12 10 13 14 14 13 14
42 44 58 50 39 43 39 72 62 51 51 55 54 52 51 49 43 40 34 34 32 31 29 33 33 32 27 23 21 20 18 15 14 14 14 14 14 15 15 13 12 12 11 13 13 11 12 12 14
41 53 53 52 41 43 40 69 54 43 39 45 45 44 44 45 43 39 38 36 34 33 33 37 34 31 28 25 22 19 17 17 16 14 13 13 12 12 13 13 12 12 13 12 10 10 11 13 16
49 51 51 51 42 41 50 69 55 46 49 52 52 50 51 52 50 47 46 41 40 41 39 37 37 35 30 25 22 20 17 16 14 14 13 11 10 11 11 12 11 10 10 9 9 9 11 16 18
42 42 49 44 36 42 49 58 54 49 52 56 56 54 55 53 48 46 46 45 46 42 42 41 36 33 25 21 22 20 17 15 14 14 13 10 10 10 10 9 8 8 8 9 5 8 11 15 18
45 45 41 38 36 39 44 51 47 46 50 50 51 52 52 53 51 49 48 46 43 45 44 38 35 32 25 22 20 18 15 14 14 14 11 9 10 10 9 7 5 7 8 6 6 7 15 16 16
45 49 48 42 36 42 45 59 57 51 50 50 49 49 52 55 56 53 52 46 41 38 37 35 34 30 24 18 15 15 13 14 13 10 9 9 8 6 5 4 4 3 3 5 6 9 13 16 16
48 35 38 44 43 50 33 57 49 47 50 46 47 45 47 50 50 50 45 39 35 36 32 33 33 26 21 14 13 11 12 11 11 9 9 6 3 4 3 2 1 2 3 5 8 11 13 14 13
46 40 38 36 39 43 46 49 53 38 46 40 38 40 41 42 44 44 44 40 38 33 34 34 33 26 18 13 12 10 7 8 7 7 5 4 2 2 3 1 1 2 5 8 10 11 11 8 10
32 36 42 41 41 53 46 42 58 46 44 41 38 39 37 38 36 32 31 29 27 27 30 29 22 17 11 10 9 5 5 6 7 5 3 2 3 3 2 2 2 5 7 8 10 9 7 8 9
32 32 40 47 49 54 36 39 45 17 25 30 24 29 33 35 32 29 27 23 27 26 21 17 13 12 8 6 2 1 3 5 4 2 3 4 4 3 3 3 5 7 8 10 9 7 7 7 9
33 37 38 47 47 47 36 40 35 31 24 26 26 29 31 33 32 28 23 23 20 14 11 11 9 6 6 4 4 4 4 4 4 6 7 5 5 4 4 5 7 8 9 8 8 8 8 8 9
27 35 37 32 33 37 35 41 41 37 30 23 23 26 30 31 28 18 17 15 9 9 9 7 7 7 6 6 6 6 6 6 7 7 6 6 6 6 6 7 8 8 8 7 7 7 7 8 8
21 23 34 34 37 40 34 40 36 24 19 21 23 26 30 26 19 15 12 7 5 6 7 7 8 8 8 8 8 8 8 8 8 8 7 7 7 7 7 8 8 8 7 7 7 8 7 7 8
27 27 30 34 36 31 31 28 23 21 16 19 21 25 23 21 16 11 4 3 5 7 8 8 8 8 9 10 10 9 9 8 8 8 8 8 8 8 8 8 8 8 8 8 8 8 9 7 8
24 24 31 40 43 39 32 28 19 13 16 18 23 23 21 17 14 7 1 4 6 8 9 8 7 8 11 11 11 10 10 9 9 8 8 9 9 9 8 9 10 10 9 9 8 7 8 7 8
Wind_Direction
268 274 274 279 288 287 270 281 299 306 327 6 18 28 106 45 23 342 24 108 69 99 112 122 119 112 108 110 111 109 107 100 98 97 93 90 85 80 73 70 67 63 57 51 48 46 43 40 33
273 271 273 281 279 267 269 283 280 314 322 313 358 2 2 359 10 6 63 105 85 99 111 120 124 118 113 115 116 112 109 103 100 95 91 88 82 77 71 68 68 62 57 53 50 48 45 43 38
272 266 274 277 271 261 273 276 286 302 299 311 324 345 342 344 12 41 77 97 90 98 107 116 125 120 118 119 117 116 110 107 104 100 95 90 83 76 70 63 60 63 58 53 51 50 48 45 39
269 268 275 266 263 263 272 272 290 297 307 307 319 317 333 351 23 69 88 90 81 90 105 116 129 128 124 130 120 117 110 110 106 102 100 95 91 85 75 62 53 55 61 58 53 48 45 42 37
267 264 262 262 259 264 267 270 287 286 288 306 308 315 331 357 27 59 89 83 74 74 89 113 136 134 131 132 130 122 112 113 111 109 108 103 95 91 81 67 61 58 55 55 50 43 40 37 32
264 266 262 257 257 261 268 270 279 287 296 308 310 330 351 6 36 51 82 74 54 80 61 104 135 139 145 148 141 126 131 127 125 122 119 112 105 97 89 80 70 61 57 53 47 39 34 30 26
264 263 261 262 259 264 264 266 273 278 293 314 316 303 325 335 332 14 35 29 25 35 45 37 127 154 162 184 169 161 161 159 152 144 144 140 128 112 92 80 71 67 58 50 42 33 28 20 17
265 266 262 259 258 261 271 266 272 264 281 294 308 307 324 341 5 359 3 0 358 355 1 13 126 176 223 222 234 238 233 212 204 196 188 180 169 152 100 80 63 60 53 45 37 28 19 13 8
265 261 259 258 258 260 267 266 272 275 280 286 289 298 316 343 7 355 348 335 331 331 325 311 299 273 263 266 260 244 244 237 232 218 214 208 227 239 297 322 360 25 28 30 26 18 12 9 5
255 258 258 260 260 262 264 263 267 270 273 275 281 292 303 315 320 324 331 328 329 325 317 300 285 274 273 269 274 260 256 242 240 239 234 228 248 271 284 303 313 335 348 2 5 4 4 7 6
258 257 260 259 262 263 261 262 269 268 268 269 274 278 289 300 302 301 312 313 319 319 317 307 302 291 280 279 282 273 273 265 259 248 245 242 255 270 279 301 307 327 331 341 345 350 354 360 5
260 261 259 260 263 263 262 265 263 264 266 273 274 280 281 287 295 297 301 304 306 309 306 310 303 298 288 293 282 276 270 266 260 252 247 248 256 268 274 279 295 316 321 326 333 340 343 347 352
257 259 264 259 261 261 266 259 263 262 266 269 274 277 280 283 292 296 298 300 299 301 300 303 303 301 299 292 291 281 271 268 261 256 251 243 251 256 270 265 277 298 308 316 322 326 331 336 338
263 262 261 263 261 261 262 260 263 262 270 271 273 275 280 284 290 293 294 296 293 294 295 299 300 302 302 295 289 282 276 271 266 259 256 240 252 267 264 255 264 277 300 310 313 317 323 326 331
265 262 264 262 258 260 264 263 255 266 269 268 272 275 276 281 286 288 292 293 293 292 295 296 299 301 300 297 290 283 278 271 265 262 262 247 248 250 261 257 265 277 293 299 309 320 323 325 326
263 262 258 257 261 262 256 257 261 269 268 268 271 275 277 280 284 286 291 292 292 292 292 294 298 300 298 298 294 287 279 273 272 273 269 254 248 258 264 264 265 271 280 296 311 318 320 324 327
259 258 258 261 259 259 257 258 265 268 271 272 274 276 279 282 284 287 289 291 291 290 291 295 298 301 300 300 298 293 286 278 278 281 277 266 255 258 265 271 264 269 283 298 307 314 318 322 326
259 260 260 260 260 258 258 259 263 266 271 272 273 276 279 281 283 286 286 288 288 289 291 293 297 302 301 299 299 299 294 286 276 279 283 276 262 262 270 279 273 266 277 288 302 309 321 326 329
265 265 261 263 264 259 259 262 263 266 269 270 270 273 276 279 282 283 284 287 284 285 287 290 294 300 300 300 299 298 292 286 282 284 285 272 276 276 277 288 277 265 267 293 301 318 325 329 330
257 260 262 266 265 265 264 265 266 267 269 270 272 273 275 276 278 281 282 285 287 284 284 287 293 297 297 294 298 307 304 295 291 291 283 270 280 287 286 286 274 277 287 285 312 319 331 330 333
256 255 256 261 267 268 268 265 265 266 269 271 273 276 276 274 271 274 274 280 285 287 286 286 292 296 299 296 297 306 311 311 303 294 282 279 284 284 285 276 261 237 230 299 314 323 330 332 337
253 258 257 257 260 259 267 264 265 267 268 272 274 277 277 274 274 273 277 282 287 287 289 290 292 296 297 291 289 287 297 305 311 304 297 290 279 292 295 297 287 206 299 316 323 331 335 337 342
254 253 256 260 259 261 261 267 263 271 269 275 279 278 278 276 275 275 275 280 284 290 288 288 288 293 291 283 282 284 294 314 324 322 311 306 316 323 340 8 96 328 326 325 328 337 340 352 355
261 252 250 254 256 254 257 262 260 268 272 276 279 277 276 280 285 283 284 286 288 288 286 292 300 302 293 285 283 258 280 312 322 325 333 342 357 27 18 19 4 343 337 337 337 346 358 2 8
256 248 243 244 245 249 260 254 255 289 284 280 283 282 278 277 281 283 286 287 277 284 297 308 313 313 313 314 298 288 314 325 339 51 61 72 48 20 12 4 336 341 345 345 355 2 8 20 17
252 241 242 242 244 247 251 252 256 263 281 280 277 280 282 276 276 278 281 275 285 303 318 326 337 5 26 33 27 3 4 8 38 76 84 54 38 28 18 359 353 351 353 5 11 16 14 17 20
252 242 240 253 249 245 246 252 257 253 264 280 285 284 289 278 274 281 274 284 306 317 339 3 24 34 33 32 28 34 39 56 66 58 41 35 34 29 11 7 2 360 8 21 28 16 39 34 46
267 256 235 239 240 240 247 246 245 250 259 271 286 290 290 280 277 270 271 288 331 357 19 40 41 35 38 45 48 51 55 56 52 41 44 42 28 18 13 4 9 17 34 33 32 30 49 69 51
262 251 243 241 239 241 241 245 251 238 247 270 294 300 294 277 264 258 266 318 18 28 50 52 43 42 47 57 57 54 51 49 45 45 41 35 26 23 18 24 33 46 41 53 41 36 24 63 64
257 260 246 236 232 238 245 240 237 230 258 280 290 301 295 271 256 253 262 58 54 64 63 54 47 51 58 59 55 51 55 54 52 48 41 38 37 37 34 42 51 36 42 35 35 42 40 77 102